Time,TemperatureF,DewpointF,PressureIn,WindDirection,WindDirectionDegrees,WindSpeedMPH,WindSpeedGustMPH,Humidity,HourlyPrecipIn,Conditions,Clouds,dailyrainin,SoftwareType,DateUTC
2013-03-15 00:03:00,31.0,26.0,-100.00,SSW,205,4.0,9.0,79,0.00,,,-99.99,,2013-03-15 04:03:00,
2013-03-15 00:12:00,31.0,26.0,-100.00,SW,230,2.0,7.0,79,0.00,,,-99.99,,2013-03-15 04:12:00,
2013-03-15 00:23:00,31.0,26.0,-100.00,SW,230,2.0,7.0,79,0.00,,,-99.99,,2013-03-15 04:23:00,
2013-03-15 00:33:00,31.0,26.0,-100.00,SW,235,3.0,8.0,79,0.00,,,-99.99,,2013-03-15 04:33:00,
2013-03-15 00:43:00,31.0,26.0,-100.00,SW,235,4.0,10.0,79,0.00,,,-99.99,,2013-03-15 04:43:00,
2013-03-15 00:52:00,31.0,25.0,-100.00,WSW,245,3.0,7.0,79,0.00,,,-99.99,,2013-03-15 04:52:00,
2013-03-15 01:02:00,31.0,26.0,-100.00,WSW,240,3.0,8.0,80,0.00,,,-99.99,,2013-03-15 05:02:00,
2013-03-15 01:12:00,31.0,26.0,-100.00,SSW,200,4.0,11.0,79,0.00,,,-99.99,,2013-03-15 05:12:00,
2013-03-15 01:22:00,31.0,25.0,-100.00,SW,235,4.0,9.0,79,0.00,,,-99.99,,2013-03-15 05:22:00,
2013-03-15 01:32:00,31.0,25.0,-100.00,WSW,245,4.0,8.0,79,0.00,,,-99.99,,2013-03-15 05:32:00,
2013-03-15 01:42:00,31.0,26.0,-100.00,WSW,255,3.0,7.0,79,0.00,,,-99.99,,2013-03-15 05:42:00,
2013-03-15 01:52:00,31.0,26.0,-100.00,SW,220,2.0,9.0,79,0.00,,,-99.99,,2013-03-15 05:52:00,
2013-03-15 02:02:00,31.0,26.0,-100.00,WSW,255,2.0,12.0,79,0.00,,,-99.99,,2013-03-15 06:02:00,
2013-03-15 02:12:00,31.0,26.0,-100.00,SW,230,3.0,8.0,80,0.00,,,-99.99,,2013-03-15 06:12:00,
2013-03-15 02:22:00,30.0,25.0,-100.00,WSW,250,2.0,7.0,81,0.00,,,-99.99,,2013-03-15 06:22:00,
2013-03-15 02:32:00,31.0,26.0,-100.00,SW,230,3.0,9.0,81,0.00,,,-99.99,,2013-03-15 06:32:00,
2013-03-15 02:42:00,31.0,26.0,-100.00,West,265,4.0,8.0,82,0.00,,,-99.99,,2013-03-15 06:42:00,
2013-03-15 02:52:00,31.0,26.0,-100.00,West,265,4.0,9.0,82,0.00,,,-99.99,,2013-03-15 06:52:00,
2013-03-15 03:02:00,30.0,26.0,-100.00,WSW,240,3.0,8.0,82,0.00,,,-99.99,,2013-03-15 07:02:00,
2013-03-15 03:12:00,30.0,26.0,-100.00,WSW,245,4.0,7.0,83,0.00,,,-99.99,,2013-03-15 07:12:00,
2013-03-15 03:22:00,31.0,26.0,-100.00,SW,220,3.0,7.0,83,0.00,,,-99.99,,2013-03-15 07:22:00,
2013-03-15 03:32:00,31.0,26.0,-100.00,WSW,255,4.0,9.0,83,0.00,,,-99.99,,2013-03-15 07:32:00,
2013-03-15 03:42:00,31.0,26.0,-100.00,WSW,250,2.0,7.0,83,0.00,,,-99.99,,2013-03-15 07:42:00,
2013-03-15 03:52:00,31.0,27.0,-100.00,WSW,255,3.0,7.0,83,0.00,,,-99.99,,2013-03-15 07:52:00,
2013-03-15 04:02:00,31.0,27.0,-100.00,WSW,245,4.0,8.0,82,0.00,,,-99.99,,2013-03-15 08:02:00,
2013-03-15 04:12:00,31.0,27.0,-100.00,SW,220,4.0,8.0,82,0.00,,,-99.99,,2013-03-15 08:12:00,
2013-03-15 04:23:00,31.0,27.0,-100.00,SW,230,6.0,9.0,82,0.00,,,-99.99,,2013-03-15 08:23:00,
2013-03-15 04:33:00,31.0,27.0,-100.00,WSW,245,4.0,9.0,82,0.00,,,-99.99,,2013-03-15 08:33:00,
2013-03-15 04:42:00,31.0,27.0,-100.00,WSW,255,3.0,7.0,82,0.00,,,-99.99,,2013-03-15 08:42:00,
2013-03-15 04:52:00,31.0,27.0,-100.00,SW,230,3.0,9.0,82,0.00,,,-99.99,,2013-03-15 08:52:00,
2013-03-15 05:02:00,32.0,27.0,-100.00,SW,225,4.0,11.0,82,0.00,,,-99.99,,2013-03-15 09:02:00,
2013-03-15 05:12:00,32.0,27.0,-100.00,West,280,4.0,10.0,81,0.00,,,-99.99,,2013-03-15 09:12:00,
2013-03-15 05:22:00,32.0,27.0,-100.00,West,280,4.0,10.0,81,0.00,,,-99.99,,2013-03-15 09:22:00,
2013-03-15 05:33:00,32.0,27.0,-100.00,SW,225,6.0,11.0,81,0.00,,,-99.99,,2013-03-15 09:33:00,
2013-03-15 05:43:00,32.0,27.0,-100.00,WSW,245,6.0,11.0,80,0.00,,,-99.99,,2013-03-15 09:43:00,
2013-03-15 05:52:00,32.0,27.0,-100.00,WSW,240,3.0,11.0,80,0.00,,,-99.99,,2013-03-15 09:52:00,
2013-03-15 06:03:00,32.0,27.0,-100.00,West,260,4.0,11.0,80,0.00,,,-99.99,,2013-03-15 10:03:00,
2013-03-15 06:13:00,32.0,27.0,-100.00,SW,230,6.0,12.0,79,0.00,,,-99.99,,2013-03-15 10:13:00,
2013-03-15 06:23:00,32.0,27.0,-100.00,WSW,245,4.0,10.0,79,0.00,,,-99.99,,2013-03-15 10:23:00,
2013-03-15 06:33:00,33.0,27.0,-100.00,WSW,250,6.0,12.0,79,0.00,,,-99.99,,2013-03-15 10:33:00,
2013-03-15 06:42:00,33.0,27.0,-100.00,SW,215,4.0,11.0,80,0.00,,,-99.99,,2013-03-15 10:42:00,
2013-03-15 06:52:00,32.0,27.0,-100.00,WSW,240,3.0,9.0,81,0.00,,,-99.99,,2013-03-15 10:52:00,
2013-03-15 07:03:00,32.0,28.0,-100.00,West,260,2.0,9.0,82,0.00,,,-99.99,,2013-03-15 11:03:00,
2013-03-15 07:12:00,32.0,28.0,-100.00,WSW,250,4.0,12.0,84,0.00,,,-99.99,,2013-03-15 11:12:00,
2013-03-15 07:23:00,32.0,28.0,-100.00,SW,230,2.0,10.0,85,0.00,,,-99.99,,2013-03-15 11:23:00,
2013-03-15 07:32:00,32.0,28.0,-100.00,West,265,3.0,9.0,86,0.00,,,-99.99,,2013-03-15 11:32:00,
2013-03-15 07:42:00,32.0,29.0,-100.00,SSW,210,3.0,8.0,87,0.00,,,-99.99,,2013-03-15 11:42:00,
2013-03-15 08:02:00,32.0,29.0,-100.00,SW,225,3.0,9.0,88,0.00,,,-99.99,,2013-03-15 12:02:00,
2013-03-15 08:12:00,33.0,30.0,-100.00,WSW,250,2.0,8.0,88,0.00,,,-99.99,,2013-03-15 12:12:00,
2013-03-15 08:23:00,33.0,30.0,-100.00,WSW,255,2.0,10.0,88,0.00,,,-99.99,,2013-03-15 12:23:00,
2013-03-15 08:32:00,33.0,30.0,-100.00,SW,220,6.0,11.0,89,0.00,,,-99.99,,2013-03-15 12:32:00,
2013-03-15 08:42:00,33.0,31.0,-100.00,West,265,4.0,9.0,89,0.00,,,-99.99,,2013-03-15 12:42:00,
2013-03-15 08:52:00,33.0,31.0,-100.00,SW,230,3.0,11.0,89,0.00,,,-99.99,,2013-03-15 12:52:00,
2013-03-15 09:02:00,34.0,31.0,-100.00,West,260,6.0,10.0,89,0.00,,,-99.99,,2013-03-15 13:02:00,
2013-03-15 09:12:00,34.0,31.0,-100.00,SW,230,6.0,17.0,89,0.00,,,-99.99,,2013-03-15 13:12:00,
2013-03-15 09:22:00,35.0,32.0,-100.00,West,260,4.0,11.0,89,0.00,,,-99.99,,2013-03-15 13:22:00,
2013-03-15 09:32:00,35.0,32.0,-100.00,West,260,4.0,11.0,89,0.00,,,-99.99,,2013-03-15 13:32:00,
2013-03-15 09:42:00,35.0,32.0,-100.00,WSW,255,4.0,10.0,89,0.00,,,-99.99,,2013-03-15 13:42:00,
2013-03-15 09:52:00,35.0,32.0,-100.00,WSW,250,5.0,12.0,89,0.00,,,-99.99,,2013-03-15 13:52:00,
2013-03-15 10:02:00,35.0,32.0,-100.00,WSW,255,4.0,10.0,88,0.00,,,-99.99,,2013-03-15 14:02:00,
2013-03-15 10:12:00,36.0,33.0,-100.00,West,270,5.0,12.0,88,0.00,,,-99.99,,2013-03-15 14:12:00,
2013-03-15 10:22:00,36.0,33.0,-100.00,WNW,300,2.0,12.0,88,0.00,,,-99.99,,2013-03-15 14:22:00,
2013-03-15 10:32:00,36.0,33.0,-100.00,WSW,255,5.0,13.0,87,0.00,,,-99.99,,2013-03-15 14:32:00,
2013-03-15 10:42:00,37.0,33.0,-100.00,West,280,4.0,11.0,86,0.00,,,-99.99,,2013-03-15 14:42:00,
2013-03-15 10:52:00,37.0,33.0,-100.00,West,265,7.0,14.0,86,0.00,,,-99.99,,2013-03-15 14:52:00,
2013-03-15 11:02:00,37.0,33.0,-100.00,SW,230,8.0,12.0,86,0.00,,,-99.99,,2013-03-15 15:02:00,
2013-03-15 11:13:00,37.0,33.0,-100.00,WSW,250,6.0,12.0,86,0.00,,,-99.99,,2013-03-15 15:13:00,
2013-03-15 11:23:00,37.0,33.0,-100.00,West,275,4.0,14.0,86,0.00,,,-99.99,,2013-03-15 15:23:00,
2013-03-15 11:33:00,38.0,34.0,-100.00,West,265,3.0,12.0,86,0.00,,,-99.99,,2013-03-15 15:33:00,
2013-03-15 11:42:00,38.0,34.0,-100.00,SW,235,4.0,12.0,85,0.00,,,-99.99,,2013-03-15 15:42:00,
2013-03-15 11:52:00,38.0,34.0,-100.00,West,265,6.0,12.0,83,0.00,,,-99.99,,2013-03-15 15:52:00,
2013-03-15 12:03:00,39.0,34.0,-100.00,WSW,245,6.0,15.0,83,0.00,,,-99.99,,2013-03-15 16:03:00,
2013-03-15 12:12:00,39.0,35.0,-100.00,WSW,250,6.0,16.0,82,0.00,,,-99.99,,2013-03-15 16:12:00,
2013-03-15 12:23:00,39.0,34.0,-100.00,West,280,6.0,11.0,81,0.00,,,-99.99,,2013-03-15 16:23:00,
2013-03-15 12:32:00,40.0,34.0,-100.00,WSW,245,6.0,12.0,81,0.00,,,-99.99,,2013-03-15 16:32:00,
2013-03-15 12:42:00,40.0,35.0,-100.00,WSW,250,6.0,12.0,80,0.00,,,-99.99,,2013-03-15 16:42:00,
2013-03-15 12:52:00,40.0,35.0,-100.00,West,270,4.0,11.0,79,0.00,,,-99.99,,2013-03-15 16:52:00,
2013-03-15 13:02:00,41.0,35.0,-100.00,West,265,2.0,11.0,79,0.00,,,-99.99,,2013-03-15 17:02:00,
2013-03-15 13:12:00,41.0,35.0,-100.00,West,280,4.0,11.0,78,0.00,,,-99.99,,2013-03-15 17:12:00,
2013-03-15 13:22:00,41.0,35.0,-100.00,West,280,5.0,11.0,77,0.00,,,-99.99,,2013-03-15 17:22:00,
2013-03-15 13:32:00,41.0,35.0,-100.00,WSW,250,6.0,11.0,77,0.00,,,-99.99,,2013-03-15 17:32:00,
2013-03-15 13:42:00,42.0,35.0,-100.00,West,280,4.0,10.0,77,0.00,,,-99.99,,2013-03-15 17:42:00,
2013-03-15 13:52:00,42.0,35.0,-100.00,West,265,5.0,11.0,76,0.00,,,-99.99,,2013-03-15 17:52:00,
2013-03-15 14:03:00,43.0,36.0,-100.00,WSW,255,3.0,11.0,75,0.00,,,-99.99,,2013-03-15 18:03:00,
2013-03-15 14:12:00,43.0,36.0,-100.00,SW,220,3.0,12.0,75,0.00,,,-99.99,,2013-03-15 18:12:00,
2013-03-15 14:22:00,43.0,36.0,-100.00,WSW,255,6.0,11.0,74,0.00,,,-99.99,,2013-03-15 18:22:00,
2013-03-15 14:32:00,43.0,36.0,-100.00,West,280,4.0,12.0,74,0.00,,,-99.99,,2013-03-15 18:32:00,
2013-03-15 14:42:00,43.0,36.0,-100.00,WNW,285,5.0,12.0,75,0.00,,,-99.99,,2013-03-15 18:42:00,
2013-03-15 14:52:00,43.0,36.0,-100.00,WNW,285,7.0,12.0,74,0.00,,,-99.99,,2013-03-15 18:52:00,
2013-03-15 15:02:00,43.0,36.0,-100.00,WNW,300,7.0,15.0,75,0.00,,,-99.99,,2013-03-15 19:02:00,
2013-03-15 15:12:00,43.0,36.0,-100.00,West,275,6.0,12.0,75,0.00,,,-99.99,,2013-03-15 19:12:00,
2013-03-15 15:22:00,43.0,36.0,-100.00,West,270,4.0,11.0,75,0.00,,,-99.99,,2013-03-15 19:22:00,
2013-03-15 15:32:00,43.0,36.0,-100.00,NW,310,8.0,15.0,75,0.00,,,-99.99,,2013-03-15 19:32:00,
2013-03-15 15:42:00,44.0,37.0,-100.00,WNW,290,6.0,10.0,76,0.00,,,-99.99,,2013-03-15 19:42:00,
2013-03-15 15:52:00,44.0,37.0,-100.00,NW,315,7.0,12.0,75,0.00,,,-99.99,,2013-03-15 19:52:00,
2013-03-15 16:02:00,44.0,37.0,-100.00,NW,310,6.0,11.0,75,0.00,,,-99.99,,2013-03-15 20:02:00,
2013-03-15 16:12:00,44.0,37.0,-100.00,WNW,300,4.0,14.0,74,0.00,,,-99.99,,2013-03-15 20:12:00,
2013-03-15 16:22:00,44.0,37.0,-100.00,WNW,300,7.0,11.0,75,0.00,,,-99.99,,2013-03-15 20:22:00,
2013-03-15 16:32:00,44.0,37.0,-100.00,WNW,290,4.0,15.0,75,0.00,,,-99.99,,2013-03-15 20:32:00,
2013-03-15 16:42:00,44.0,37.0,-100.00,WNW,285,6.0,11.0,75,0.00,,,-99.99,,2013-03-15 20:42:00,
2013-03-15 16:52:00,44.0,37.0,-100.00,WNW,285,5.0,9.0,76,0.00,,,-99.99,,2013-03-15 20:52:00,
2013-03-15 17:02:00,44.0,37.0,-100.00,WNW,300,6.0,11.0,76,0.00,,,-99.99,,2013-03-15 21:02:00,
2013-03-15 17:12:00,44.0,37.0,-100.00,WNW,285,4.0,12.0,77,0.00,,,-99.99,,2013-03-15 21:12:00,
2013-03-15 17:22:00,44.0,37.0,-100.00,West,280,2.0,9.0,77,0.00,,,-99.99,,2013-03-15 21:22:00,
2013-03-15 17:33:00,44.0,37.0,-100.00,WNW,290,4.0,9.0,77,0.00,,,-99.99,,2013-03-15 21:33:00,
2013-03-15 17:43:00,44.0,37.0,-100.00,West,280,6.0,11.0,78,0.00,,,-99.99,,2013-03-15 21:43:00,
2013-03-15 17:52:00,44.0,38.0,-100.00,WNW,300,5.0,10.0,78,0.00,,,-99.99,,2013-03-15 21:52:00,
2013-03-15 18:04:00,44.0,38.0,-100.00,WNW,300,5.0,10.0,78,0.00,,,-99.99,,2013-03-15 22:04:00,
2013-03-15 18:13:00,44.0,38.0,-100.00,WNW,285,4.0,8.0,79,0.00,,,-99.99,,2013-03-15 22:13:00,
2013-03-15 18:22:00,43.0,38.0,-100.00,NNW,340,7.0,9.0,81,0.55,,,-99.99,,2013-03-15 22:22:00,
2013-03-15 18:32:00,42.0,38.0,-100.00,NNW,335,6.0,10.0,84,0.55,,,-99.99,,2013-03-15 22:32:00,
2013-03-15 18:42:00,42.0,38.0,-100.00,North,0,5.0,9.0,86,0.55,,,-99.99,,2013-03-15 22:42:00,
2013-03-15 18:52:00,40.0,37.0,-100.00,NNE,30,4.0,9.0,88,1.10,,,-99.99,,2013-03-15 22:52:00,
2013-03-15 19:03:00,40.0,37.0,-100.00,North,5,4.0,9.0,90,0.55,,,-99.99,,2013-03-15 23:03:00,
2013-03-15 19:12:00,39.0,37.0,-100.00,NNE,30,1.0,7.0,90,0.55,,,-99.99,,2013-03-15 23:12:00,
2013-03-15 19:22:00,39.0,37.0,-100.00,NNE,30,3.0,6.0,91,0.55,,,-99.99,,2013-03-15 23:22:00,
2013-03-15 19:32:00,39.0,37.0,-100.00,North,0,2.0,6.0,91,0.00,,,-99.99,,2013-03-15 23:32:00,
2013-03-15 19:42:00,38.0,36.0,-100.00,NE,40,2.0,6.0,92,0.55,,,-99.99,,2013-03-15 23:42:00,
2013-03-15 19:52:00,38.0,36.0,-100.00,NNE,25,1.0,6.0,93,0.55,,,-99.99,,2013-03-15 23:52:00,
2013-03-15 20:03:00,37.0,35.0,-100.00,NE,40,4.0,6.0,93,1.10,,,-99.99,,2013-03-16 00:03:00,
2013-03-15 20:12:00,36.0,35.0,-100.00,NE,55,2.0,5.0,93,1.10,,,-99.99,,2013-03-16 00:12:00,
2013-03-15 20:22:00,36.0,35.0,-100.00,NE,35,1.0,4.0,94,0.55,,,-99.99,,2013-03-16 00:22:00,
2013-03-15 20:32:00,36.0,35.0,-100.00,NNE,20,1.0,3.0,94,1.10,,,-99.99,,2013-03-16 00:32:00,
2013-03-15 20:42:00,36.0,34.0,-100.00,NE,55,1.0,4.0,94,1.10,,,-99.99,,2013-03-16 00:42:00,
2013-03-15 20:52:00,35.0,34.0,-100.00,NE,45,1.0,4.0,94,1.10,,,-99.99,,2013-03-16 00:52:00,
2013-03-15 21:03:00,35.0,34.0,-100.00,NNE,25,1.0,2.0,95,0.00,,,-99.99,,2013-03-16 01:03:00,
2013-03-15 21:12:00,35.0,34.0,-100.00,ENE,65,0.0,1.0,95,4.53,,,-99.99,,2013-03-16 01:12:00,
2013-03-15 21:22:00,35.0,34.0,-100.00,ESE,120,1.0,2.0,95,5.08,,,-99.99,,2013-03-16 01:22:00,
2013-03-15 21:32:00,35.0,33.0,-100.00,East,100,0.0,2.0,95,2.83,,,-99.99,,2013-03-16 01:32:00,
2013-03-15 21:42:00,35.0,33.0,-100.00,SSE,165,1.0,2.0,96,2.83,,,-99.99,,2013-03-16 01:42:00,
2013-03-15 21:52:00,34.0,33.0,-100.00,SSE,160,0.0,2.0,96,6.22,,,-99.99,,2013-03-16 01:52:00,
2013-03-15 22:02:00,34.0,33.0,-100.00,SSE,155,0.0,2.0,96,5.67,,,-99.99,,2013-03-16 02:02:00,
2013-03-15 22:12:00,34.0,33.0,-100.00,SSE,155,1.0,2.0,96,0.55,,,-99.99,,2013-03-16 02:12:00,
2013-03-15 22:23:00,34.0,33.0,-100.00,South,185,0.0,4.0,96,0.55,,,-99.99,,2013-03-16 02:23:00,
2013-03-15 22:33:00,34.0,33.0,-100.00,South,175,1.0,2.0,96,0.55,,,-99.99,,2013-03-16 02:33:00,
2013-03-15 22:42:00,34.0,33.0,-100.00,South,175,1.0,2.0,96,0.55,,,-99.99,,2013-03-16 02:42:00,
2013-03-15 22:52:00,34.0,33.0,-100.00,SSE,165,1.0,2.0,96,1.10,,,-99.99,,2013-03-16 02:52:00,
2013-03-15 23:02:00,34.0,33.0,-100.00,South,190,1.0,4.0,97,1.10,,,-99.99,,2013-03-16 03:02:00,
2013-03-15 23:12:00,34.0,33.0,-100.00,South,170,1.0,3.0,97,1.69,,,-99.99,,2013-03-16 03:12:00,
2013-03-15 23:22:00,34.0,33.0,-100.00,SSE,160,1.0,4.0,97,1.10,,,-99.99,,2013-03-16 03:22:00,
2013-03-15 23:32:00,34.0,33.0,-100.00,SSE,160,1.0,2.0,97,0.55,,,-99.99,,2013-03-16 03:32:00,
2013-03-15 23:43:00,34.0,33.0,-100.00,SE,145,1.0,3.0,97,1.10,,,-99.99,,2013-03-16 03:43:00,
2013-03-15 23:52:00,34.0,33.0,-100.00,ESE,115,1.0,2.0,97,0.55,,,-99.99,,2013-03-16 03:52:00,